KE0TRL Weather Reports


time (UTC)temp
F
wind
direction
speed
knots
gust
knots
rain 1hr
in
rain 24hr
in
rain mn
in
humidity
%
barometer
mb
20260509042602 63 0 0.9 1.7 0.00 0.00 0.00 37 1005.4
20260509041503 63 270 2.6 2.6 0.00 0.00 0.00 37 1005.4
20260509035305 63 45 1.7 1.7 0.00 0.00 0.00 37 1005.4
20260509034202 63 0 0.9 1.7 0.00 0.00 0.00 35 1005.8
20260509030802 64 0 1.7 1.7 0.00 0.00 0.00 34 1005.1
20260509025702 64 0 0.9 0.9 0.00 0.00 0.00 34 1005.1
20260509024602 65 270 0.0 1.7 0.00 0.00 0.00 32 1005.1
20260509023502 65 158 1.7 1.7 0.00 0.00 0.00 32 1005.1
20260509022306 66 90 0.0 0.9 0.00 0.00 0.00 30 1004.4
20260509021102 67 45 0.0 0.9 0.00 0.00 0.00 30 1004.4
20260509013903 70 0 0.0 0.9 0.00 0.00 0.00 27 1003.7
20260509011703 72 248 0.9 1.7 0.00 0.00 0.00 25 1003.4
20260509010603 73 180 0.9 3.5 0.00 0.00 0.00 25 1003.7
20260509005502 74 293 0.9 3.5 0.00 0.00 0.00 25 1003.7
20260509004402 74 158 1.7 5.2 0.00 0.00 0.00 27 1003.4
20260509003302 75 225 5.2 5.2 0.00 0.00 0.00 25 1003.4
20260509001003 76 0 7.0 7.0 0.00 0.00 0.00 30 1003.7
20260508235902 76 45 2.6 5.2 0.00 0.00 0.00 31 1003.4
20260508234802 75 23 3.5 5.2 0.00 0.00 0.00 34 1003.4
20260508233702 75 113 1.7 1.7 0.00 0.00 0.00 34 1003.7
20260508231503 74 90 1.7 2.6 0.00 0.00 0.00 32 1003.7
20260508230502 74 45 0.9 2.6 0.00 0.00 0.00 32 1003.7
20260508225403 75 45 1.7 2.6 0.00 0.00 0.00 30 1003.7
20260508224302 75 23 2.6 5.2 0.00 0.00 0.00 31 1003.7
20260508222102 77 45 2.6 3.5 0.00 0.00 0.00 27 1004.1
20260508215902 77 45 4.3 4.3 0.00 0.00 0.00 30 1003.7
20260508214803 79 45 3.5 6.1 0.00 0.00 0.00 27 1004.4
20260508212602 77 23 3.5 7.0 0.00 0.00 0.00 29 1004.1
20260508210302 80 68 3.5 4.3 0.00 0.00 0.00 29 1004.4
20260508205202 78 23 3.5 6.1 0.00 0.00 0.00 29 1004.7
20260508204102 76 23 1.7 6.1 0.00 0.00 0.00 30 1004.7
20260508202902 76 23 5.2 7.0 0.00 0.00 0.00 30 1004.7
20260508201802 77 158 1.7 4.3 0.00 0.00 0.00 30 1005.4
20260508200702 76 45 3.5 3.5 0.00 0.00 0.00 30 1005.4
20260508195602 75 68 2.6 5.2 0.00 0.00 0.00 30 1005.8
20260508194402 77 45 3.5 3.5 0.00 0.00 0.00 29 1005.4
20260508193302 79 45 2.6 6.1 0.00 0.00 0.00 27 1005.8
20260508192202 78 270 2.6 2.6 0.00 0.00 0.00 30 1005.8
20260508191102 76 158 1.7 1.7 0.00 0.00 0.00 30 1005.8
20260508183702 76 90 2.6 3.5 0.00 0.00 0.00 31 1006.1
20260508181502 75 225 2.6 2.6 0.00 0.00 0.00 35 1006.4
20260508180401 74 0 1.7 3.5 0.00 0.00 0.00 32 1006.4
20260508175202 74 68 2.6 2.6 0.00 0.00 0.00 31 1006.8
20260508174102 73 45 3.5 4.3 0.00 0.00 0.00 31 1006.4
20260508173004 74 180 0.9 2.6 0.00 0.00 0.00 37 1006.8
20260508171902 72 68 3.5 5.2 0.00 0.00 0.00 35 1007.1
20260508170802 71 45 1.7 4.3 0.00 0.00 0.00 37 1006.8
20260508165702 71 135 0.9 1.7 0.00 0.00 0.00 37 1007.1
20260508164602 70 45 2.6 2.6 0.00 0.00 0.00 35 1007.1
20260508163502 70 158 1.7 2.6 0.00 0.00 0.00 39 1007.1
20260508162403 71 158 1.7 2.6 0.00 0.00 0.00 35 1007.1
20260508160202 70 23 1.7 3.5 0.00 0.00 0.00 34 1007.1
20260508155102 70 68 1.7 3.5 0.00 0.00 0.00 40 1007.1
20260508154003 69 158 1.7 1.7 0.00 0.00 0.00 35 1007.5
20260508153003 68 45 0.9 1.7 0.00 0.00 0.00 37 1007.5
20260508151902 67 45 1.7 2.6 0.00 0.00 0.00 40 1007.5
20260508150802 66 45 1.7 2.6 0.00 0.00 0.00 41 1007.5
20260508145702 65 45 2.6 2.6 0.00 0.00 0.00 40 1007.5
20260508144602 64 45 3.5 3.5 0.00 0.00 0.00 44 1007.8
20260508143402 63 68 1.7 2.6 0.00 0.00 0.00 46 1007.8
20260508142306 62 45 2.6 3.5 0.00 0.00 0.00 45 1007.8
20260508134902 57 158 0.9 0.9 0.00 0.00 0.00 61 1007.8
20260508133802 56 158 0.0 0.0 0.00 0.00 0.00 63 1008.1
20260508125403 54 45 0.0 0.0 0.00 0.00 0.00 60 1007.5
20260508124202 53 158 0.0 0.0 0.00 0.00 0.00 60 1007.8
20260508122002 52 158 0.0 0.0 0.00 0.00 0.00 59 1007.1
20260508120902 52 158 0.0 0.0 0.00 0.00 0.00 60 1007.5
20260508115702 52 45 0.0 0.9 0.00 0.00 0.00 59 1007.8
20260508114602 52 45 1.7 2.6 0.00 0.00 0.00 56 1007.8
20260508113502 51 45 1.7 2.6 0.00 0.00 0.00 55 1007.5
20260508112202 51 158 0.0 0.0 0.00 0.00 0.00 58 1007.5
20260508111102 51 158 0.0 0.0 0.00 0.00 0.00 55 1007.8
20260508104902 51 158 0.0 0.0 0.00 0.00 0.00 50 1007.8
20260508103702 51 158 0.0 0.0 0.00 0.00 0.00 50 1007.5
20260508102603 52 158 0.9 1.7 0.00 0.00 0.00 46 1007.8
20260508101502 53 158 0.9 1.7 0.00 0.00 0.00 45 1007.8
20260508100302 51 180 0.0 0.9 0.00 0.00 0.00 50 1007.8
20260508095202 50 158 0.0 0.9 0.00 0.00 0.00 55 1007.8
20260508094003 51 158 1.7 1.7 0.00 0.00 0.00 55 1008.1
20260508092903 52 158 0.0 0.9 0.00 0.00 0.00 50 1008.1
20260508091902 52 45 0.9 0.9 0.00 0.00 0.00 50 1007.8
20260508090803 53 113 0.0 2.6 0.00 0.00 0.00 51 1008.5
20260508085702 53 158 0.0 2.6 0.00 0.00 0.00 53 1008.5
20260508084602 53 158 0.0 2.6 0.00 0.00 0.00 51 1008.5
20260508083503 53 158 0.0 0.0 0.00 0.00 0.00 50 1008.1
20260508082306 54 158 1.7 1.7 0.00 0.00 0.00 49 1007.8
20260508081202 54 158 0.0 0.0 0.00 0.00 0.00 49 1007.8
20260508075003 54 68 1.7 1.7 0.00 0.00 0.00 49 1008.5
20260508073902 54 45 1.7 1.7 0.00 0.00 0.00 49 1008.5
20260508072802 54 180 0.0 1.7 0.00 0.00 0.00 48 1007.8
20260508071702 54 180 0.9 1.7 0.00 0.00 0.00 49 1008.5
20260508070701 54 180 0.9 1.7 0.00 0.00 0.00 48 1008.1
20260508064003 55 338 0.9 1.7 0.00 0.00 0.00 45 1008.5
20260508062902 54 180 0.0 0.0 0.00 0.00 0.00 45 1008.5
20260508061802 54 203 0.0 0.0 0.00 0.00 0.00 46 1008.5
20260508060702 54 203 0.9 1.7 0.00 0.00 0.00 46 1008.1
20260508055603 54 158 0.9 0.9 0.00 0.00 0.00 49 1008.5
20260508054503 54 158 0.9 1.7 0.00 0.00 0.00 48 1008.1
20260508053302 53 158 1.7 1.7 0.00 0.00 0.00 54 1008.1
20260508052202 54 158 1.7 1.7 0.00 0.00 0.00 50 1008.1
20260508051102 54 158 1.7 1.7 0.00 0.00 0.00 46 1008.1
20260508050004 54 158 0.0 0.9 0.00 0.00 0.00 45 1008.5
20260508045102 53 158 0.0 0.0 0.00 0.00 0.00 45 1008.5
20260508044002 53 158 0.0 0.0 0.00 0.00 0.00 46 1008.5